Regional Weather Roundup
Issued by NWS Charleston, SC

Current Version | Previous Version | Graphics & Text | Print | Product List | Glossary On
Versions: 1 2 3 4 5 6 7 8 9 10 11 12 13 14 15 16 17 18 19 20 21 22 23 24 25 26 27 28 29 30 31 32 33 34 35 36 37 38 39 40 41 42 43 44 45 46 47 48 49 50
000 ASUS42 KCHS 262012 RWRCHS REGIONAL WEATHER ROUNDUP NATIONAL WEATHER SERVICE CHARLESTON SC 400 PM EDT WED JUL 26 2017 NOTE: "FAIR" INDICATES FEW OR NO CLOUDS BELOW 12,000 FEET WITH NO SIGNIFICANT WEATHER AND/OR OBSTRUCTIONS TO VISIBILITY. NOT ALL STATIONS ARE QUALITY CONTROLLED. USE DATA WITH CAUTION... ESPECIALLY DEWPOINT OBSERVATIONS. SCZ027-030-031-034>040-042>050-262100- ...SOUTHEAST SOUTH CAROLINA... CITY SKY/WX TMP DP RH WIND PRES REMARKS N CHARLESTON CLOUDY 84 74 71 N5 30.09S HX 91 WATERFRONT PRK N/A 78 75 90 N6 30.08S JOHNS ISLAND FAIR 81 75 83 N8 30.08F PINOPOLIS N/A 81 73 78 N5 30.04F MONCKS CORNER FAIR 81 70 69 N3 30.09F SUMMERVILLE FAIR 82 72 69 CALM 30.09F BEAUFORT MCAS CLOUDY 85 75 72 CALM 30.07F HX 93 BEAUFORT ARPT FAIR 81 73 78 NE3 30.07R HILTON HEAD IS MOSUNNY 81 75 83 CALM 30.17R WALTERBORO CLOUDY 86 72 62 E5 30.08F HX 92 ALLENDALE NOT AVBL ...SOUTHERN MIDLANDS AND PEE DEE... CITY SKY/WX TMP DP RH WIND PRES REMARKS GEORGETOWN MOCLDY 81 79 94 E7 30.11F KINGSTREE FAIR 73 72 94 CALM 30.10 ORANGEBURG CLOUDY 77 72 84 CALM 30.10F BARNWELL MOCLDY 86 77 74 NE8 30.08F HX 97 AIKEN FAIR 73 72 94 SW5 30.16R MANNING FAIR 79 77 94 SE3 30.09F COLUMBIA CLOUDY 84 73 69 S14 30.09F HX 90 SUMTER PTSUNNY 83 73 71 S9 30.09S FLORENCE MOSUNNY 89 74 60 NE9 30.10F HX 98 MYRTLE BEACH MOSUNNY 82 75 78 E12 30.10F N MYRTLE BEACH CLOUDY 82 72 71 NE13 30.09F $$ GAZ063-065-086>088-099>101-113>116-118-119-134>141-150-262100- ...SOUTHEAST GEORGIA... CITY SKY/WX TMP DP RH WIND PRES REMARKS SAVANNAH ARPT CLOUDY 84 74 71 VRB5 30.07F HX 91 HUNTER AAF NOT AVBL FORT STEWART CLOUDY 78 75 91 E5 30.06S STATESBORO MOSUNNY 85 71 62 SE5 30.08F SYLVANIA PTCLDY 83 76 79 SE3 30.09S HX 92 CLAXTON MOCLDY 80 77 89 E5 30.08S ...CSRA...CENTRAL AND FAR SOUTHEAST GEORGIA... CITY SKY/WX TMP DP RH WIND PRES REMARKS THOMSON CLOUDY 81 73 78 S13G24 30.13R THUNDER AUGUSTA-BUSH TSTM 76 72 87 NW9 30.09R FOG AUGUSTA-DANIEL TSTM 76 69 79 VRB3 30.12R SWAINSBORO MOCLDY 88 73 62 E10 30.07F HX 96 VIDALIA PTSUNNY 88 75 66 E12 30.07S HX 97 EASTMAN FAIR 91 62 38 E3 30.08F HX 91 HAZLEHURST FAIR 86 77 74 E7 30.04F HX 97 ALMA MOSUNNY 88 75 65 S6 30.03F HX 97 WAYCROSS MOSUNNY 84 80 89 CALM 30.05F HX 97 JESUP NOT AVBL BAXLEY FAIR 86 82 89 E3 30.05F HX 105 BRUNSWICK TSTM 75 73 94 W8 30.08R SAINT SIMONS LGT RAIN 80 77 90 E8 30.05F $$ SCZ027-028-034-036>038-045-046-048>050-GAZ119-141-262100- ...LAKE AND SUPPLEMENTAL COASTAL OBSERVATIONS... STATION/POSITION TIME TEMP WIND PRES WAVE SWELL AIR SEA DIR/SP/G HT/PER HT/PER/DIR (UTC) (F) (DEG/KT/KT) (MB) (FT/S) (FT/S/D) WINYAH BAY NOT AVBL LAKE MURRAY 1920 85 90/ 10/ 12 1017.9F ACE BASIN NERRS 1845 81 60/ 2 1019.0 FORT PULASKI 1948 80 85 70/ 3/ 4 1018.3F SAPELO ISLAND NOT AVBL $$ ANZ835-935-AMZ111-154-330-350-352-354-370-450-454-472-262100- ...C-MAN AND BUOY OBSERVATIONS... STATION/POSITION TIME TEMP WIND PRES WAVE SWELL AIR SEA DIR/SP/G HT/PER HT/PER/DIR (UTC) (F) (DEG/KT/KT) (MB) (FT/S) (FT/S/D) BUOY 41004 1950 79 82 310/ 8/ 10 1018.6R 2/ 9 2/120/ 9 BUOY 41008 1850 80 81 80/ 12/ 14 1018.3 4/ 6 2/ 80/ 6 FOLLY BEACH CMAN 1900 75 270/ 4/ 5 1019.1F CAPERS NEARSHORE 1908 72 84 340/ 8/ 14 1019.3S FRIPP NEARSHORE 1908 80 84 60/ 4/ 8 1017.8F STATION/POSITION TIME TEMP WIND PRES WAVE SWELL AIR SEA DIR/SP/G HT/PER HT/PER/DIR (UTC) (F) (DEG/KT/KT) (MB) (FT/S) (FT/S/D) 5E ST. MARYS GA 1930 80 N/A 1/10 FRYING PAN BUOY 1950 80 82 40/ 16/ 19 1018.5F 3/ 5 2/120/10 BUOY 41025 1950 80 83 30/ 12/ 12 1020.1F 3/ 5 2/ 40/ 6 CAPE LOOKOUT NC 1900 79 40/ 14/ 16 1020.2F BUOY 41002 1950 80 83 140/ 4/ 6 1018.4F 3/10 2/ 90/10 BUOY 41010 1950 85 86 180/ 4/ 6 1018.5F 2/10 2/120/10 ST AUGUSTINE FL 2000 80 77 130/ 12/ 12 1017.3F $$

USA.gov is the U.S. government's official web portal to all federal, state and local government web resources and services.